Location: Dalton Gardens
(47.7327°N, 116.7697°W)
Time: 22:03:55
(UTC+00:00)

BlueWalker 3 - Pass Details

Date: 05 December 2022
Orbit: 499 x 517 km, 53.2° (Epoch: 04 February)

Event Time Altitude Azimuth Distance (km) Brightness Sun altitude
Rises 02:34:45 0° 297° (WNW) 2,627 6.5 -25.8°
Reaches altitude 10° 02:36:58 10° 300° (WNW) 1,735 5.3 -26.2°
Enters shadow 02:39:13 32° 312° (NW) 900 3.5 -26.5°
